Hermosillo, México

2:10 PM MST en Diciembre 11, 2017 (GMT -0700)
Gen Ignacio Pesqueira Garcia

Tiempo Historia de MMHO - Diciembre, 2017

Change the Weather History Date:

Jueves, Diciembre 7, 2017

  Actual Average Record
Temperature  
Temperatura media 64 ° F -  
Temperatura máxima 78 ° F 74 ° F 89 ° F (2010)
Temperatura mínima 51 ° F 44 ° F 36 ° F (2013)
Growing Degree Days 14 (Base 50)    
Moisture  
Punto de rocío 36 ° F    
Average Humidity 42    
Maximum Humidity 100    
Minimum Humidity 7    
Precipitación  
Precipitación 0.00 pul - - ()
Presión al nivel del mar  
Presión al nivel del mar 30.08 pul    
Viento  
Velocidad del viento 5 mph ()    
Velocidad máxima del viento 17 mph    
Max Gust Speed 23 mph    
Visibilidad 9.3 Millas    
Eventos      
Averages and records for this station are not official NWS values.
T = Trace of Precipitation, MM = Missing Value Source: Averaged Metar Reports

Daily Weather History Graph

Daily Weather History Graph

Search for Another Location

Airport or City:

Trip Planner

Search our weather history database for the weather conditions in past years. The results will help you decide how hot, cold, wet, or windy it might be!

Date:

Astronomía

Dec. 07, 2017 Salida Puesta
Hora real 7:05 AM MST 5:26 PM MST
Crepúsculo civil 6:39 AM MST 5:52 PM MST
Crepúsculo náutico 6:09 AM MST 6:21 PM MST
Crepúsculo astronómico 5:41 AM MST 6:50 PM MST
Luna 10:08 PM MST (12/7) 10:54 AM MST (12/7)
Horas de luz 11h 12m
Horas de luz
10h 21m
Gibosa menguante, 77% of the Moon is Illuminated
Dic 7
Gibosa menguante
Dic 10
Cuarto menguante
Dic 17
Nueva
Dic 26
Cuarto creciente
Ene 1
Luna llena

Hourly Weather History & Observations

Hora (MST) Temp. Punto de rocío Humedad Presión Visibilidad Wind Dir Velocidad del viento Velocidad de ráfagas Precip Eventos Condiciones
12:45 AM 59.0 ° F 50.0 ° F 72% 30.04 pul 10.0 mi Sin viento Sin viento - N/A   Despejado
1:40 AM 55.4 ° F 48.2 ° F 77% 30.04 pul 10.0 mi Sin viento Sin viento - N/A   Despejado
2:40 AM 55.4 ° F 48.2 ° F 77% 30.04 pul 10.0 mi NO 4.6 mph - N/A   Despejado
3:40 AM 53.6 ° F 48.2 ° F 82% 30.04 pul 10.0 mi Oeste 5.8 mph - N/A   Despejado
4:40 AM 55.4 ° F 48.2 ° F 77% 30.04 pul 10.0 mi ESE 4.6 mph - N/A   Despejado
5:40 AM 57.2 ° F 48.2 ° F 72% 30.03 pul 10.0 mi Sin viento Sin viento - N/A   Despejado
6:40 AM 51.8 ° F 48.2 ° F 88% 30.04 pul 10.0 mi Sin viento Sin viento - N/A   Despejado
7:40 AM 52 ° F 49 ° F 84% 30.08 pul 7 mi Este 4.5 mph - -  
7:40 AM 53.6 ° F 46.4 ° F 77% 30.07 pul 10.0 mi Sin viento Sin viento - N/A   Despejado
8:45 AM 62.6 ° F 50.0 ° F 63% 30.08 pul 10.0 mi Sin viento Sin viento - N/A   Despejado
9:40 AM 68.0 ° F 50.0 ° F 52% 30.09 pul 10.0 mi ENE 4.6 mph - N/A   Despejado
10:40 AM 73.4 ° F 44.6 ° F 36% 30.09 pul 10.0 mi ENE 5.8 mph - N/A   Despejado
10:45 AM 70 ° F 48 ° F 34% 30.05 pul 7 mi ENE 4.5 mph - -  
11:40 AM 75.2 ° F 42.8 ° F 31% 30.09 pul 10.0 mi ENE 5.8 mph - N/A   Despejado
12:40 PM 78.8 ° F 35.6 ° F 21% 30.03 pul 10.0 mi NNE 11.5 mph - N/A   Despejado
1:42 PM 78 ° F 30 ° F 9% 29.96 pul 7 mi ONO 6.7 mph - -  
1:46 PM 78.8 ° F 28.4 ° F 16% 30.01 pul 10.0 mi Norte 11.5 mph 23.0 mph N/A   Despejado
2:00 PM 78 ° F 30 ° F 9% 29.96 pul 7 mi ONO 6.7 mph - -   Nubes dispersas
2:41 PM 78.8 ° F 14.0 ° F 9% 30.01 pul 10.0 mi Norte 15.0 mph - N/A   Despejado
3:41 PM 77.0 ° F 17.6 ° F 11% 30.03 pul 10.0 mi Norte 8.1 mph - N/A   Despejado
4:40 PM 71 ° F 20 ° F 7% 30.02 pul 7 mi NE 13.4 mph - -  
4:40 PM 73.4 ° F 23.0 ° F 15% 30.06 pul 10.0 mi NNE 11.5 mph - N/A   Despejado
5:40 PM 69.8 ° F 21.2 ° F 16% 30.08 pul 10.0 mi NNE 13.8 mph - N/A   Parcialmente nublado
6:40 PM 68.0 ° F 17.6 ° F 15% 30.12 pul 10.0 mi NNE 10.4 mph - N/A   Despejado
7:40 PM 66.2 ° F 19.4 ° F 17% 30.18 pul 10.0 mi NNE 15.0 mph - N/A   Despejado
8:40 PM 64.4 ° F 21.2 ° F 19% 30.21 pul 10.0 mi NE 17.3 mph - N/A   Despejado
9:40 PM 60.8 ° F 23.0 ° F 23% 30.24 pul 10.0 mi NNE 6.9 mph - N/A   Despejado
10:40 PM 56 ° F 57 ° F 100% 30.23 pul 5 mi ENE 11.2 mph - -  
10:40 PM 60.8 ° F 21.2 ° F 22% 30.27 pul 10.0 mi NNE 12.7 mph - N/A   Despejado
11:40 PM 59.0 ° F 19.4 ° F 22% 30.26 pul 10.0 mi NNE 9.2 mph - N/A   Despejado